Location: Unspecified
(37.6100°N, 2.7800°W)
Time: 02:51:35
(UTC+00:00)

LightSail 2 - Visible Passes

Search period start: 18 August 2019 00:00
Search period end: 28 August 2019 00:00
Orbit: 702 x 731 km, 24.0° (Epoch: 16 August)

Date Brightness Start Highest point End Pass type
(mag) Time Alt. Az. Time Alt. Az. Time Alt. Az.
19 Aug 7.2 20:17:38 10° S 20:18:18 11° S 20:18:18 11° S visible
20 Aug 7.4 21:03:50 10° SSW 21:04:10 11° SSW 21:04:10 11° SSW visible
21 Aug 6.9 20:07:26 10° SSW 20:10:05 14° S 20:10:52 14° SSE visible
22 Aug 7.1 20:54:53 10° SW 20:56:32 15° SSW 20:56:32 15° SSW visible
23 Aug 6.9 19:58:13 10° SW 20:01:23 17° S 20:03:06 14° SSE visible
24 Aug 7.0 20:46:15 10° SW 20:48:39 16° SSW 20:48:39 16° SSW visible
25 Aug 6.9 19:49:21 10° SW 19:52:41 17° S 19:55:07 13° SSE visible
26 Aug 7.1 20:37:54 10° SW 20:40:35 15° SSW 20:40:35 15° SSW visible
27 Aug 7.1 19:40:47 10° SW 19:43:56 16° S 19:47:00 10° SSE visible
